Tracking 28915 objects as of 30-May-2024
HD Live streaming from Space Station
objects crossing your sky now

OBJECT Q

Track OBJECT Q now!
10-day predictions
OBJECT Q is classified as:


NORAD ID: 43772
Int'l Code: 2018-099Q
Perigee: 541.9 km
Apogee: 547.9 km
Inclination: 97.5 °
Period: 95.4 minutes
Semi major axis: 6915 km
RCS: Unknown
Launch date: December 3, 2018
Source: (TBD)
Launch site: AIR FORCE WESTERN TEST RANGE (AFWTR)

Uplink (MHz):
Downlink (MHz): 437.150
Beacon (MHz):
Mode: 0.1kbps-115.2kbps FSK/MSK/GFSK/GMSK
Call sign:
Status: Inactive

Your satellite tracking list
Your tracking list is empty




NASA's NSSDC Master Catalog

Two Line Element Set (TLE):
1 43772U 18099Q   24151.09789190  .00010210  00000-0  64055-3 0  9993
2 43772  97.5249 212.7448 0004376 345.6498  14.4606 15.09490735299990
Source of the keplerian elements: Caltech